Mountain Home, AR

5:35 PM CST on November 17, 2017 (GMT -0600)
Baxter County Regional

Weather History for KBPK - December, 2012

Change the Weather History Date:

Thursday, December 20, 2012

  Actual Average (KFLP) Record (KFLP)
Temperature  
Mean Temperature 44 °F -  
Max Temperature 57 °F 43 °F 69 °F (2013)
Min Temperature 30 °F 25 °F 8 °F (1996)
Degree Days  
Heating Degree Days 22    
Moisture  
Dew Point 34 °F    
Average Humidity 75    
Maximum Humidity 100    
Minimum Humidity 46    
Precipitation  
Precipitation 0.50 in - - ()
Sea Level Pressure  
Sea Level Pressure 29.76 in    
Wind  
Wind Speed 10 mph (WNW)    
Max Wind Speed 20 mph    
Max Gust Speed 46 mph    
Visibility 8 miles    
Events Rain , Snow , Thunderstorm    
Averages and records for this station are not official NWS values.
T = Trace of Precipitation, MM = Missing Value Source: NWS Daily Summary

Daily Weather History Graph

Daily Weather History Graph

Search for Another Location

Airport or City:

Trip Planner

Search our weather history database for the weather conditions in past years. The results will help you decide how hot, cold, wet, or windy it might be!

Date:

Astronomy

Dec. 20, 2012 Rise Set
Actual Time 7:17 AM CST 4:58 PM CST
Civil Twilight 6:48 AM CST 5:26 PM CST
Nautical Twilight 6:16 AM CST 5:59 PM CST
Astronomical Twilight 5:44 AM CST 6:30 PM CST
Moon 12:08 PM CST (12/20) 12:13 AM CST (12/20)
Length of Visible Light 10h 38m
Length of Day
9h 40m
First Quarter, 55% of the Moon is Illuminated
Dec 20
First Quarter
Dec 28
Full
Jan 4
Last Quarter
Jan 11
New
Jan 18
First Quarter

Hourly Weather History & Observations

Time (CST) Temp. Windchill Dew Point Humidity Pressure Visibility Wind Dir Wind Speed Gust Speed Precip Events Conditions
12:08 AM 57.2 °F - 57.2 °F 100% 29.47 in 1.8 mi NW 6.9 mph - 0.08 in Rain , Thunderstorm Heavy Thunderstorms and Rain
12:19 AM 55.4 °F - 55.4 °F 100% 29.49 in 0.8 mi Variable 6.9 mph 35.7 mph 0.38 in Rain , Thunderstorm Heavy Rain
12:23 AM 55.4 °F - 55.4 °F 100% 29.49 in 1.5 mi WNW 5.8 mph 17.3 mph 0.39 in Rain , Thunderstorm Rain
12:26 AM 55.4 °F - 55.4 °F 100% 29.48 in 3.0 mi Variable 5.8 mph - 0.40 in Rain , Thunderstorm Rain
12:39 AM 55.4 °F - 55.4 °F 100% 29.47 in 5.0 mi WNW 3.5 mph - 0.41 in Rain Rain
12:53 AM 55.0 °F - 55.0 °F 100% 29.44 in 5.0 mi NW 3.5 mph - 0.43 in Rain Rain
1:53 AM 54.0 °F - 54.0 °F 100% 29.43 in 8.0 mi South 9.2 mph - 0.06 in Rain Light Rain
2:53 AM 54.0 °F - 53.1 °F 97% 29.42 in 8.0 mi SSW 9.2 mph - 0.00 in   Overcast
3:53 AM 53.1 °F - 50.0 °F 89% 29.42 in 8.0 mi SW 13.8 mph 21.9 mph N/A   Overcast
4:53 AM 46.9 °F - 35.1 °F 63% 29.48 in 9.0 mi WSW 18.4 mph 33.4 mph N/A   Mostly Cloudy
5:53 AM 45.0 °F 37.4 °F 35.1 °F 68% 29.52 in 9.0 mi West 18.4 mph 40.3 mph N/A   Overcast
6:00 AM 44.6 °F 37.2 °F 33.8 °F 66% 29.55 in 10.0 mi West 17.3 mph 31.1 mph N/A   Overcast
6:50 AM 39.2 °F - 32.0 °F 75% 29.60 in - North - - N/A   Unknown
6:53 AM 39.0 °F - 32.0 °F 76% 29.61 in - North - - N/A   Unknown
7:53 AM - - - N/A% 29.65 in - North - - N/A   Unknown
8:53 AM 35.1 °F 25.2 °F 26.1 °F 70% 29.70 in - West 16.1 mph 35.7 mph N/A   Unknown
9:21 AM 33.8 °F 22.8 °F 24.8 °F 70% 29.73 in 10.0 mi WNW 18.4 mph 46.0 mph 0.01 in   Overcast
9:53 AM 33.1 °F 21.5 °F 25.0 °F 72% 29.77 in 5.0 mi WNW 19.6 mph 39.1 mph 0.01 in Snow Light Snow
10:53 AM 34.0 °F 23.4 °F 26.1 °F 73% 29.81 in 9.0 mi WNW 17.3 mph 32.2 mph 0.00 in   Overcast
11:53 AM 37.0 °F 27.7 °F 26.1 °F 65% 29.83 in 10.0 mi WNW 16.1 mph 36.8 mph N/A   Overcast
12:36 PM 35.6 °F 25.2 °F 24.8 °F 65% 29.86 in 10.0 mi WNW 18.4 mph 36.8 mph N/A   Overcast
12:53 PM 36.0 °F 27.5 °F 24.1 °F 62% 29.88 in 10.0 mi WNW 12.7 mph 42.6 mph N/A   Overcast
1:41 PM 35.6 °F 26.2 °F 24.8 °F 65% 29.91 in 10.0 mi WNW 15.0 mph 33.4 mph N/A   Overcast
1:53 PM 36.0 °F 27.5 °F 24.1 °F 62% 29.92 in 10.0 mi NW 12.7 mph 31.1 mph N/A   Overcast
2:53 PM 37.9 °F 30.0 °F 21.0 °F 51% 29.96 in 10.0 mi WNW 12.7 mph 28.8 mph N/A   Partly Cloudy
3:53 PM 39.0 °F 30.6 °F 19.9 °F 46% 29.99 in 10.0 mi NW 15.0 mph 27.6 mph N/A   Partly Cloudy
4:53 PM - - - N/A% 30.04 in - North - - N/A   Unknown
5:53 PM - - - N/A% 30.07 in - North - - N/A   Unknown
6:53 PM - - - N/A% 30.10 in - North - - N/A   Unknown
7:53 PM - - - N/A% 30.13 in - North - - N/A   Unknown
8:53 PM 33.1 °F 24.9 °F 18.0 °F 54% 30.17 in 10.0 mi NW 10.4 mph 26.5 mph N/A   Clear
9:53 PM 32.0 °F 22.5 °F 18.0 °F 56% 30.19 in 10.0 mi WNW 12.7 mph 29.9 mph N/A   Clear
10:53 PM 30.9 °F 22.8 °F 18.0 °F 59% 30.20 in 10.0 mi NW 9.2 mph 25.3 mph N/A   Clear
11:53 PM 30.9 °F 23.5 °F 17.1 °F 57% 30.21 in 10.0 mi NW 8.1 mph - N/A   Clear